Location: Chillicothe
(39.7950°N, 93.5520°W)
Time: 23:38:20
(UTC-06:00)

Explorer 11/Cluster Stage 4 - Pass Details

Date: 30 October 2019
Orbit: 467 x 1259 km, 28.8° (Epoch: 20 November)

Event Time Altitude Azimuth Distance (km) Brightness Sun altitude
Rises 06:52:30 0° 242° (WSW) 3,411 - -9.8°
Exits shadow 06:53:29 - 239° (WSW) 3,067 9.2 -9.6°
Reaches altitude 10° 06:55:47 10° 228° (SW) 2,311 8.6 -9.2°
Maximum altitude 06:59:50 22° 179° (S) 1,482 8.2 -8.4°
Drops below altitude 10° 07:03:18 10° 129° (SE) 1,949 9.8 -7.8°
Sets 07:05:49 0° 113° (ESE) 2,739 11.5 -7.3°
